| time (UTC) | temp C | wind direction | speed KPH | gust KPH | rain 1hr cm | rain 24hr cm | rain mn cm | humidity % | barometer mb |
| 20260901220036 | 30 | 194 | 0.0 | 1.6 | 0.00 | 0.03 | 0.00 | 74 | 1013.0 |
| 20260901214531 | 31 | 194 | 1.6 | 1.6 | 0.00 | 0.03 | 0.00 | 71 | 1013.0 |
| 20260901213023 | 31 | 194 | 0.0 | 3.2 | 0.00 | 0.03 | 0.00 | 72 | 1013.3 |
| 20260901211536 | 31 | 194 | 0.0 | 6.4 | 0.00 | 0.03 | 0.00 | 69 | 1013.5 |
| 20260901210008 | 31 | 211 | 3.2 | 6.4 | 0.00 | 0.03 | 0.00 | 68 | 1013.2 |
| 20260901204517 | 31 | 205 | 3.2 | 6.4 | 0.00 | 0.03 | 0.00 | 70 | 1013.3 |
| 20260901203025 | 31 | 183 | 4.8 | 8.0 | 0.00 | 0.03 | 0.00 | 69 | 1013.5 |
| 20260901201526 | 31 | 192 | 1.6 | 4.8 | 0.00 | 0.03 | 0.00 | 69 | 1013.7 |
| 20260901200020 | 31 | 208 | 1.6 | 8.0 | 0.00 | 0.03 | 0.00 | 70 | 1013.7 |
| 20260901194511 | 31 | 182 | 4.8 | 8.0 | 0.00 | 0.03 | 0.00 | 71 | 1013.9 |
| 20260901193018 | 31 | 175 | 3.2 | 8.0 | 0.00 | 0.03 | 0.00 | 72 | 1014.0 |
| 20260901191530 | 30 | 200 | 3.2 | 9.7 | 0.00 | 0.05 | 0.00 | 71 | 1014.0 |
| 20260901190034 | 31 | 208 | 3.2 | 6.4 | 0.00 | 0.08 | 0.00 | 71 | 1014.2 |
| 20260901184508 | 30 | 199 | 1.6 | 9.7 | 0.00 | 0.08 | 0.00 | 72 | 1014.3 |
| 20260901183032 | 30 | 190 | 3.2 | 9.7 | 0.00 | 0.08 | 0.00 | 72 | 1014.2 |
| 20260901181523 | 30 | 187 | 3.2 | 8.0 | 0.00 | 0.08 | 0.00 | 74 | 1014.2 |
| 20260901180028 | 29 | 213 | 4.8 | 8.0 | 0.00 | 0.08 | 0.00 | 75 | 1014.7 |
| 20260901174530 | 28 | 217 | 1.6 | 3.2 | 0.00 | 0.08 | 0.00 | 77 | 1014.6 |
| 20260901173010 | 28 | 204 | 3.2 | 6.4 | 0.00 | 0.08 | 0.00 | 78 | 1014.6 |
| 20260901171516 | 28 | 196 | 3.2 | 8.0 | 0.00 | 0.08 | 0.00 | 79 | 1014.8 |
| 20260901170025 | 27 | 196 | 1.6 | 6.4 | 0.00 | 0.08 | 0.00 | 80 | 1014.8 |
| 20260901164531 | 27 | 199 | 1.6 | 3.2 | 0.00 | 0.08 | 0.00 | 81 | 1015.1 |
| 20260901163032 | 27 | 207 | 3.2 | 4.8 | 0.00 | 0.08 | 0.00 | 84 | 1015.3 |
| 20260901161515 | 26 | 200 | 3.2 | 4.8 | 0.00 | 0.08 | 0.00 | 85 | 1015.4 |
| 20260901160022 | 26 | 200 | 1.6 | 3.2 | 0.00 | 0.08 | 0.00 | 87 | 1015.6 |
| 20260901154526 | 25 | 200 | 1.6 | 3.2 | 0.00 | 0.08 | 0.00 | 88 | 1015.6 |
| 20260901153039 | 25 | 196 | 1.6 | 3.2 | 0.00 | 0.08 | 0.00 | 89 | 1015.7 |
| 20260901151533 | 25 | 209 | 3.2 | 4.8 | 0.00 | 0.08 | 0.00 | 89 | 1015.6 |
| 20260901150017 | 25 | 191 | 3.2 | 4.8 | 0.00 | 0.08 | 0.00 | 90 | 1015.9 |
| 20260901144535 | 24 | 203 | 1.6 | 3.2 | 0.00 | 0.08 | 0.00 | 90 | 1015.9 |
| 20260901143031 | 24 | 203 | 1.6 | 3.2 | 0.00 | 0.08 | 0.00 | 89 | 1016.0 |
| 20260901141536 | 24 | 185 | 1.6 | 4.8 | 0.00 | 0.08 | 0.00 | 88 | 1015.7 |
| 20260901140017 | 24 | 194 | 3.2 | 6.4 | 0.00 | 0.08 | 0.00 | 88 | 1015.6 |
| 20260901134527 | 24 | 200 | 4.8 | 6.4 | 0.00 | 0.08 | 0.00 | 90 | 1015.8 |
| 20260901133038 | 23 | 197 | 1.6 | 4.8 | 0.00 | 0.08 | 0.00 | 93 | 1015.8 |
| 20260901131534 | 22 | 192 | 3.2 | 4.8 | 0.00 | 0.08 | 0.00 | 96 | 1015.8 |
| 20260901130033 | 22 | 213 | 1.6 | 3.2 | 0.00 | 0.08 | 0.00 | 97 | 1016.2 |
| 20260901124531 | 22 | 96 | 0.0 | 1.6 | 0.00 | 0.08 | 0.00 | 97 | 1016.4 |
| 20260901123028 | 21 | 96 | 0.0 | 0.0 | 0.00 | 0.08 | 0.00 | 97 | 1016.2 |
| 20260901121529 | 21 | 350 | 0.0 | 3.2 | 0.00 | 0.08 | 0.00 | 97 | 1016.5 |
| 20260901120003 | 21 | 352 | 0.0 | 3.2 | 0.00 | 0.08 | 0.00 | 97 | 1016.0 |
| 20260901114503 | 21 | 182 | 0.0 | 0.0 | 0.00 | 0.08 | 0.00 | 97 | 1015.7 |
| 20260901113004 | 20 | 182 | 0.0 | 0.0 | 0.00 | 0.08 | 0.00 | 97 | 1015.8 |
| 20260901111504 | 20 | 182 | 0.0 | 0.0 | 0.00 | 0.08 | 0.00 | 97 | 1016.0 |
| 20260901110007 | 20 | 182 | 0.0 | 0.0 | 0.00 | 0.08 | 0.00 | 97 | 1016.1 |
| 20260901104503 | 20 | 182 | 0.0 | 0.0 | 0.00 | 0.08 | 0.00 | 97 | 1016.1 |
| 20260901103003 | 20 | 182 | 0.0 | 0.0 | 0.00 | 0.08 | 0.00 | 97 | 1016.3 |
| 20260901101503 | 20 | 182 | 0.0 | 0.0 | 0.00 | 0.08 | 0.00 | 97 | 1016.1 |
| 20260901100003 | 20 | 182 | 0.0 | 0.0 | 0.00 | 0.08 | 0.00 | 97 | 1016.1 |
| 20260901094506 | 20 | 182 | 0.0 | 0.0 | 0.00 | 0.08 | 0.00 | 96 | 1016.1 |
| 20260901093004 | 20 | 182 | 0.0 | 0.0 | 0.00 | 0.08 | 0.00 | 96 | 1016.2 |
| 20260901091503 | 20 | 182 | 0.0 | 0.0 | 0.00 | 0.08 | 0.00 | 96 | 1016.3 |
| 20260901090013 | 20 | 182 | 0.0 | 0.0 | 0.00 | 0.08 | 0.00 | 96 | 1016.2 |
| 20260901084505 | 20 | 182 | 0.0 | 0.0 | 0.00 | 0.08 | 0.00 | 96 | 1016.3 |
| 20260901083008 | 20 | 182 | 0.0 | 0.0 | 0.00 | 0.08 | 0.00 | 96 | 1016.4 |
| 20260901081516 | 20 | 182 | 0.0 | 0.0 | 0.00 | 0.08 | 0.00 | 96 | 1016.4 |
| 20260901080005 | 20 | 182 | 0.0 | 0.0 | 0.00 | 0.08 | 0.00 | 96 | 1016.5 |
| 20260901074507 | 20 | 182 | 0.0 | 0.0 | 0.00 | 0.08 | 0.00 | 96 | 1016.7 |
| 20260901073022 | 20 | 182 | 0.0 | 0.0 | 0.00 | 0.08 | 0.00 | 96 | 1016.7 |
| 20260901071509 | 20 | 182 | 0.0 | 0.0 | 0.00 | 0.08 | 0.00 | 96 | 1016.6 |
| 20260901070023 | 20 | 182 | 0.0 | 0.0 | 0.00 | 0.08 | 0.00 | 96 | 1016.6 |
| 20260901064511 | 20 | 182 | 0.0 | 0.0 | 0.00 | 0.08 | 0.00 | 96 | 1016.7 |
| 20260901063011 | 20 | 182 | 0.0 | 0.0 | 0.00 | 0.08 | 0.00 | 96 | 1016.9 |
| 20260901061511 | 20 | 182 | 0.0 | 0.0 | 0.00 | 0.08 | 0.00 | 96 | 1017.0 |
| 20260901060011 | 20 | 182 | 0.0 | 0.0 | 0.00 | 0.08 | 0.00 | 95 | 1017.3 |
| 20260901054513 | 20 | 182 | 0.0 | 0.0 | 0.00 | 0.08 | 0.00 | 96 | 1017.3 |
| 20260901053011 | 20 | 182 | 0.0 | 0.0 | 0.00 | 0.08 | 0.00 | 96 | 1017.4 |
| 20260901051513 | 20 | 182 | 0.0 | 0.0 | 0.00 | 0.08 | 0.00 | 96 | 1017.5 |
| 20260901050018 | 20 | 182 | 0.0 | 0.0 | 0.00 | 0.08 | 0.00 | 95 | 1017.7 |
| 20260901044516 | 21 | 182 | 0.0 | 0.0 | 0.00 | 0.08 | 0.00 | 95 | 1017.5 |
| 20260901043018 | 20 | 182 | 0.0 | 0.0 | 0.00 | 0.08 | 0.00 | 95 | 1017.4 |
| 20260901041515 | 21 | 182 | 0.0 | 0.0 | 0.03 | 0.08 | 0.00 | 95 | 1017.5 |
| 20260901040020 | 21 | 182 | 0.0 | 0.0 | 0.03 | 0.08 | 0.00 | 94 | 1017.8 |
| 20260901034522 | 21 | 182 | 0.0 | 0.0 | 0.03 | 0.08 | 0.08 | 94 | 1017.9 |
| 20260901033034 | 21 | 182 | 0.0 | 0.0 | 0.03 | 0.08 | 0.08 | 94 | 1017.8 |
| 20260901031520 | 21 | 182 | 0.0 | 0.0 | 0.00 | 0.05 | 0.05 | 93 | 1018.0 |
| 20260901030015 | 21 | 182 | 0.0 | 0.0 | 0.00 | 0.05 | 0.05 | 94 | 1018.3 |
| 20260901024526 | 21 | 182 | 0.0 | 0.0 | 0.00 | 0.05 | 0.05 | 94 | 1018.3 |
| 20260901023028 | 21 | 182 | 0.0 | 0.0 | 0.00 | 0.05 | 0.05 | 94 | 1018.3 |
| 20260901021522 | 20 | 182 | 0.0 | 0.0 | 0.00 | 0.05 | 0.05 | 93 | 1018.3 |
| 20260901020028 | 20 | 182 | 0.0 | 0.0 | 0.00 | 0.05 | 0.05 | 93 | 1018.3 |
| 20260901014517 | 20 | 182 | 0.0 | 0.0 | 0.00 | 0.05 | 0.05 | 93 | 1018.2 |
| 20260901013023 | 20 | 182 | 0.0 | 0.0 | 0.00 | 0.05 | 0.05 | 92 | 1018.2 |
| 20260901011526 | 21 | 182 | 0.0 | 0.0 | 0.00 | 0.05 | 0.05 | 92 | 1018.2 |
| 20260901010025 | 21 | 182 | 0.0 | 0.0 | 0.00 | 0.05 | 0.05 | 91 | 1018.1 |
| 20260901004532 | 21 | 182 | 0.0 | 0.0 | 0.00 | 0.05 | 0.05 | 91 | 1018.1 |
| 20260901003024 | 21 | 182 | 0.0 | 0.0 | 0.00 | 0.05 | 0.05 | 90 | 1018.1 |
| 20260901001533 | 21 | 182 | 0.0 | 0.0 | 0.00 | 0.05 | 0.05 | 89 | 1018.0 |
| 20260901000027 | 22 | 182 | 0.0 | 0.0 | 0.00 | 0.05 | 0.05 | 87 | 1018.0 |
| 20260831234537 | 22 | 182 | 0.0 | 0.0 | 0.00 | 0.05 | 0.05 | 86 | 1017.9 |
| 20260831233029 | 22 | 182 | 0.0 | 0.0 | 0.00 | 0.05 | 0.05 | 85 | 1017.9 |
| 20260831231522 | 23 | 182 | 0.0 | 3.2 | 0.00 | 0.05 | 0.05 | 84 | 1017.9 |
| 20260831230029 | 23 | 182 | 0.0 | 3.2 | 0.00 | 0.05 | 0.05 | 83 | 1018.0 |
| 20260831224530 | 23 | 182 | 0.0 | 0.0 | 0.00 | 0.05 | 0.05 | 83 | 1018.2 |
| 20260831223028 | 23 | 182 | 0.0 | 3.2 | 0.00 | 0.05 | 0.05 | 82 | 1018.2 |
| 20260831221531 | 23 | 182 | 0.0 | 3.2 | 0.00 | 0.05 | 0.05 | 81 | 1018.3 |